Portsmouth, NH

11:14 AM EDT on September 27, 2016 (GMT -0400)
Pease International Tradeport

Weather History for KPSM - October, 2011

Change the Weather History Date:

Monday, October 17, 2011

  Actual Average Record
Temperature  
Mean Temperature 57 °F -  
Max Temperature 63 °F 57 °F 77 °F (1999)
Min Temperature 51 °F 39 °F 21 °F (1978)
Degree Days  
Heating Degree Days 8    
Growing Degree Days 7 (Base 50)    
Moisture  
Dew Point 40 °F    
Average Humidity 58    
Maximum Humidity 88    
Minimum Humidity 30    
Precipitation  
Precipitation 0.01 in - - ()
Sea Level Pressure  
Sea Level Pressure 29.63 in    
Wind  
Wind Speed 8 mph (SW)    
Max Wind Speed 17 mph    
Max Gust Speed 25 mph    
Visibility 10 miles    
Events Rain    
Averages and records for this station are not official NWS values.
T = Trace of Precipitation, MM = Missing Value Source: NWS Daily Summary

Daily Weather History Graph

Daily Weather History Graph

Search for Another Location

Airport or City:

Trip Planner

Search our weather history database for the weather conditions in past years. The results will help you decide how hot, cold, wet, or windy it might be!

Date:

Astronomy

Oct. 17, 2011 Rise Set
Actual Time 6:58 AM EDT 5:57 PM EDT
Civil Twilight 6:30 AM EDT 6:26 PM EDT
Nautical Twilight 5:57 AM EDT 6:59 PM EDT
Astronomical Twilight 5:24 AM EDT 7:32 PM EDT
Moon 9:29 PM EDT (10/17) 12:09 PM EDT (10/17)
Length of Visible Light 11h 56m
Length of Day
10h 58m
Waning Gibbous, 74% of the Moon is Illuminated
Oct 17
Waning Gibbous
Oct 19
Last Quarter
Oct 26
New
Nov 2
First Quarter
Nov 10
Full

Hourly Weather History & Observations

Time (EDT) Temp. Dew Point Humidity Pressure Visibility Wind Dir Wind Speed Gust Speed Precip Events Conditions
12:55 AM 54.3 °F 46.2 °F 74% 29.60 in 8.0 mi South 5.8 mph - 0.00 in Rain Light Rain
1:55 AM 54.0 °F 48.0 °F 80% 29.58 in 8.0 mi Calm Calm - 0.00 in Rain Light Rain
2:55 AM 53.8 °F 48.7 °F 83% 29.57 in 10.0 mi SSW 6.9 mph - 0.01 in Rain Light Rain
3:55 AM 55.4 °F 50.0 °F 82% 29.54 in 10.0 mi SW 13.8 mph 21.9 mph 0.00 in Rain Light Rain
4:17 AM 55.4 °F 50.0 °F 82% 29.55 in 10.0 mi SW 13.8 mph 20.7 mph N/A   Mostly Cloudy
4:55 AM 54.3 °F 49.3 °F 83% 29.56 in 10.0 mi SW 10.4 mph - 0.00 in   Partly Cloudy
5:55 AM 52.7 °F 48.0 °F 84% 29.57 in 10.0 mi WSW 6.9 mph - N/A   Partly Cloudy
6:55 AM 51.3 °F 47.8 °F 88% 29.60 in 10.0 mi West 6.9 mph - N/A   Partly Cloudy
7:55 AM 52.2 °F 47.3 °F 83% 29.62 in 10.0 mi WSW 6.9 mph - N/A   Partly Cloudy
8:55 AM 55.6 °F 43.7 °F 64% 29.64 in 10.0 mi West 11.5 mph - N/A   Partly Cloudy
9:55 AM 57.9 °F 40.8 °F 53% 29.65 in 10.0 mi West 11.5 mph - N/A   Partly Cloudy
10:55 AM 59.5 °F 37.6 °F 44% 29.64 in 10.0 mi WSW 11.5 mph 21.9 mph N/A   Partly Cloudy
11:55 AM 60.6 °F 33.6 °F 36% 29.64 in 10.0 mi West 11.5 mph 23.0 mph N/A   Scattered Clouds
12:55 PM 61.9 °F 32.0 °F 33% 29.63 in 10.0 mi West 17.3 mph 25.3 mph N/A   Scattered Clouds
1:55 PM 62.4 °F 31.8 °F 32% 29.62 in 10.0 mi West 17.3 mph 21.9 mph N/A   Partly Cloudy
2:55 PM 63.5 °F 31.8 °F 31% 29.62 in 10.0 mi West 9.2 mph - N/A   Partly Cloudy
3:55 PM 62.4 °F 30.7 °F 30% 29.63 in 10.0 mi West 10.4 mph 18.4 mph N/A   Scattered Clouds
4:55 PM 60.3 °F 32.9 °F 36% 29.64 in 10.0 mi WSW 5.8 mph - N/A   Mostly Cloudy
5:55 PM 57.9 °F 35.4 °F 43% 29.65 in 10.0 mi SW 5.8 mph - N/A   Mostly Cloudy
6:55 PM 56.3 °F 37.6 °F 50% 29.68 in 10.0 mi South 5.8 mph - N/A   Mostly Cloudy
7:55 PM 54.5 °F 37.0 °F 52% 29.68 in 10.0 mi South 8.1 mph - N/A   Mostly Cloudy
8:55 PM 55.0 °F 37.6 °F 52% 29.68 in 10.0 mi South 9.2 mph - N/A   Mostly Cloudy
9:55 PM 54.9 °F 37.2 °F 51% 29.69 in 10.0 mi SSW 6.9 mph - N/A   Scattered Clouds
10:55 PM 54.1 °F 37.0 °F 52% 29.68 in 10.0 mi WSW 9.2 mph - N/A   Partly Cloudy
11:55 PM 53.1 °F 37.2 °F 55% 29.69 in 10.0 mi WSW 6.9 mph - N/A   Clear